Weather History for Cape Girardeau, MO

Change the Weather History Date:

Saturday, May 11, 2013

  Actual Average Record
Temperature  
Mean Temperature 63 °F 65 °F  
Max Temperature 74 °F 76 °F 89 °F (2005)
Min Temperature 51 °F 54 °F 38 °F (1969)
Degree Days  
Heating Degree Days 2 3  
Month to date heating degree days 62 38  
Since 1 July heating degree days 4328 4356  
Cooling Degree Days 0 3  
Month to date cooling degree days 11 25  
Year to date cooling degree days 36 56  
Growing Degree Days 14 (Base 50)    
Moisture  
Dew Point 48 °F    
Average Humidity 59    
Maximum Humidity 86    
Minimum Humidity 31    
Precipitation  
Precipitation 0.01 in 0.20 in 0.85 in (1986)
Month to date precipitation 2.03 2.14  
Year to date precipitation 14.85 17.78  
Sea Level Pressure  
Sea Level Pressure 30.02 in    
Wind  
Wind Speed 9 mph (NNW)    
Max Wind Speed 22 mph    
Max Gust Speed 30 mph    
Visibility 10 miles    
Events Rain    
T = Trace of Precipitation, MM = Missing Value Source: NWS Daily Summary

Daily Weather History Graph

Daily Weather History Graph

Search for Another Location

Airport:

Trip Planner

Search our weather history database for the weather conditions in past years. The results will help you decide how hot, cold, wet, or windy it might be!

Date:

Astronomy

May. 11, 2013 Rise Set
Actual Time 5:52 AM CDT 7:56 PM CDT
Civil Twilight 5:24 AM CDT 8:25 PM CDT
Nautical Twilight 4:49 AM CDT 9:00 PM CDT
Astronomical Twilight 4:11 AM CDT 9:39 PM CDT
Moon 7:01 AM CDT (5/11) 9:36 PM CDT (5/11)
Length of Visible Light 15h 01m
Length of Day
14h 03m
Waxing Crescent, 3% of the Moon is Illuminated
May 11
Waxing Crescent
May 17
First Quarter
May 24
Full
May 31
Last Quarter
Jun 8
New

Hourly Weather History & Observations

Time (CDT) Temp. Dew Point Humidity Pressure Visibility Wind Dir Wind Speed Gust Speed Precip Events Conditions
12:53 AM 59.0 °F 54.0 °F 83% 29.99 in 10.0 mi North 4.6 mph - N/A   Mostly Cloudy
1:53 AM 57.9 °F 53.1 °F 84% 29.98 in 10.0 mi NNW 5.8 mph - N/A   Partly Cloudy
2:53 AM 57.9 °F 53.1 °F 84% 29.98 in 10.0 mi NNW 6.9 mph - N/A   Overcast
3:53 AM 57.9 °F 53.1 °F 84% 29.98 in 10.0 mi NNW 6.9 mph - N/A   Overcast
4:53 AM 57.9 °F 52.0 °F 81% 29.97 in 10.0 mi North 8.1 mph - N/A   Overcast
5:53 AM 57.0 °F 51.1 °F 81% 29.99 in 10.0 mi North 8.1 mph - N/A   Overcast
6:53 AM 57.0 °F 51.1 °F 81% 30.01 in 10.0 mi NNW 9.2 mph - N/A   Overcast
7:53 AM 57.9 °F 51.1 °F 78% 30.01 in 10.0 mi North 8.1 mph - N/A   Overcast
8:53 AM 60.1 °F 51.1 °F 72% 30.02 in 10.0 mi North 8.1 mph - N/A   Partly Cloudy
9:53 AM 62.1 °F 52.0 °F 70% 30.01 in 10.0 mi NNW 10.4 mph - N/A   Mostly Cloudy
10:53 AM 64.9 °F 52.0 °F 63% 30.03 in 10.0 mi NNW 9.2 mph - N/A   Scattered Clouds
11:53 AM 68.0 °F 51.1 °F 55% 30.03 in 10.0 mi North 9.2 mph - N/A   Partly Cloudy
12:53 PM 70.0 °F 50.0 °F 49% 30.01 in 10.0 mi NW 11.5 mph - N/A   Partly Cloudy
1:53 PM 71.1 °F 50.0 °F 47% 30.00 in 10.0 mi NW 8.1 mph - N/A   Mostly Cloudy
2:53 PM 72.0 °F 50.0 °F 46% 29.99 in 10.0 mi NNW 12.7 mph 18.4 mph N/A   Overcast
3:53 PM 72.0 °F 50.0 °F 46% 29.98 in 10.0 mi NW 8.1 mph - N/A   Scattered Clouds
4:53 PM 69.1 °F 55.9 °F 63% 29.98 in 8.0 mi NNW 10.4 mph - 0.01 in Rain Light Rain
5:53 PM 71.1 °F 53.1 °F 53% 29.98 in 10.0 mi North 10.4 mph - 0.00 in   Partly Cloudy
6:53 PM 69.1 °F 37.9 °F 32% 29.99 in 10.0 mi North 17.3 mph - N/A   Partly Cloudy
7:53 PM 64.9 °F 36.0 °F 34% 30.03 in 10.0 mi North 17.3 mph 24.2 mph N/A   Clear
8:53 PM 61.0 °F 37.0 °F 41% 30.07 in 10.0 mi North 9.2 mph - N/A   Clear
9:53 PM 59.0 °F 36.0 °F 42% 30.11 in 10.0 mi North 11.5 mph - N/A   Clear
10:53 PM 55.0 °F 36.0 °F 49% 30.13 in 10.0 mi North 6.9 mph - N/A   Clear
11:53 PM 53.6 °F 35.6 °F 51% 30.14 in 10.0 mi North 6.9 mph - N/A   Clear